• In Deutschland
  • Länderverzeichnis
  • Für 7 Tage
  • Wassertemperatur
  • Satellitenkarten
  • Wetterkarte
  • Widgets
  • user-avatar
    Anmelden

    Stündliche Wetter Panevėžys

    Heute, 24 September, Sonntag

    Zeit Temperatur Niederschläge Wind Luftdruck Luftfeuchtigkeit
    00:00 +11°C° 0 mm 3 m/S 765 mmHg 91%
    01:00 +11°C° 0 mm 3 m/S 766 mmHg 92%
    02:00 +11°C° 0 mm 3 m/S 766 mmHg 92%
    03:00 +11°C° 0 mm 3 m/S 766 mmHg 93%
    04:00 +10°C° 0 mm 3 m/S 766 mmHg 93%
    05:00 +10°C° 0 mm 3 m/S 766 mmHg 93%
    06:00 +11°C° 0 mm 3 m/S 766 mmHg 91%
    07:00 +11°C° 0 mm 3 m/S 766 mmHg 88%
    08:00 +12°C° 0 mm 4 m/S 767 mmHg 85%
    09:00 +13°C° 0 mm 4 m/S 767 mmHg 80%
    10:00 +15°C° 0 mm 4 m/S 767 mmHg 74%
    11:00 +16°C° 0 mm 5 m/S 767 mmHg 69%
    12:00 +17°C° 0 mm 5 m/S 767 mmHg 66%
    13:00 +19°C° 0 mm 5 m/S 767 mmHg 64%
    14:00 +20°C° 0 mm 5 m/S 767 mmHg 61%
    15:00 +19°C° 0 mm 4 m/S 767 mmHg 65%
    16:00 +18°C° 0 mm 4 m/S 767 mmHg 69%
    17:00 +18°C° 0 mm 3 m/S 767 mmHg 73%
    18:00 +17°C° 0 mm 3 m/S 767 mmHg 76%
    19:00 +14°C° 0 mm 4 m/S 768 mmHg 80%
    20:00 +13°C° 0 mm 4 m/S 768 mmHg 83%
    21:00 +12°C° 0 mm 4 m/S 768 mmHg 85%
    22:00 +12°C° 0 mm 4 m/S 768 mmHg 86%
    23:00 +12°C° 0 mm 4 m/S 769 mmHg 87%

    Morgen, 25 September, Montag

    Zeit Temperatur Niederschläge Wind Luftdruck Luftfeuchtigkeit
    00:00 +11°C° 0 mm 4 m/S 769 mmHg 89%
    01:00 +11°C° 0 mm 4 m/S 769 mmHg 90%
    02:00 +10°C° 0 mm 4 m/S 769 mmHg 92%
    03:00 +10°C° 0 mm 4 m/S 769 mmHg 92%
    04:00 +10°C° 0 mm 4 m/S 769 mmHg 92%
    05:00 +8°C° 0 mm 4 m/S 769 mmHg 93%
    06:00 +10°C° 0 mm 4 m/S 769 mmHg 90%
    07:00 +10°C° 0 mm 4 m/S 769 mmHg 88%
    08:00 +10°C° 0 mm 5 m/S 770 mmHg 85%
    09:00 +12°C° 0 mm 5 m/S 770 mmHg 79%
    10:00 +14°C° 0 mm 5 m/S 770 mmHg 74%
    11:00 +15°C° 0 mm 5 m/S 770 mmHg 68%
    12:00 +16°C° 0 mm 5 m/S 770 mmHg 66%
    13:00 +17°C° 0 mm 5 m/S 770 mmHg 63%
    14:00 +19°C° 0 mm 5 m/S 769 mmHg 61%
    15:00 +17°C° 0 mm 5 m/S 769 mmHg 64%
    16:00 +18°C° 0 mm 4 m/S 769 mmHg 68%
    17:00 +17°C° 0 mm 4 m/S 769 mmHg 72%
    18:00 +15°C° 0 mm 4 m/S 770 mmHg 75%
    19:00 +14°C° 0 mm 4 m/S 770 mmHg 79%
    20:00 +13°C° 0 mm 4 m/S 770 mmHg 82%
    21:00 +12°C° 0 mm 4 m/S 771 mmHg 84%
    22:00 +12°C° 0 mm 3 m/S 771 mmHg 85%
    23:00 +11°C° 0 mm 3 m/S 771 mmHg 87%

    übermorgen, 26 September, Dienstag

    Zeit Temperatur Niederschläge Wind Luftdruck Luftfeuchtigkeit
    00:00 +11°C° 0 mm 3 m/S 771 mmHg 89%
    01:00 +10°C° 0 mm 3 m/S 771 mmHg 91%
    02:00 +10°C° 0 mm 3 m/S 771 mmHg 93%
    03:00 +10°C° 0 mm 3 m/S 771 mmHg 93%
    04:00 +9°C° 0 mm 3 m/S 771 mmHg 93%
    05:00 +9°C° 0 mm 3 m/S 772 mmHg 94%
    06:00 +9°C° 0 mm 3 m/S 772 mmHg 91%
    07:00 +10°C° 0 mm 3 m/S 772 mmHg 88%
    08:00 +10°C° 0 mm 4 m/S 772 mmHg 85%
    09:00 +12°C° 0 mm 4 m/S 772 mmHg 80%
    10:00 +14°C° 0 mm 4 m/S 772 mmHg 75%
    11:00 +15°C° 0 mm 4 m/S 772 mmHg 70%
    12:00 +17°C° 0 mm 4 m/S 772 mmHg 67%
    13:00 +18°C° 0 mm 4 m/S 772 mmHg 64%
    14:00 +19°C° 0 mm 4 m/S 772 mmHg 61%
    15:00 +18°C° 0 mm 3 m/S 772 mmHg 65%
    16:00 +18°C° 0 mm 3 m/S 772 mmHg 68%
    17:00 +17°C° 0 mm 3 m/S 772 mmHg 72%
    18:00 +14°C° 0 mm 3 m/S 772 mmHg 76%
    19:00 +13°C° 0 mm 3 m/S 772 mmHg 81%
    20:00 +11°C° 0 mm 3 m/S 772 mmHg 85%
    21:00 +11°C° 0 mm 3 m/S 772 mmHg 87%
    22:00 +10°C° 0 mm 3 m/S 773 mmHg 88%
    23:00 +10°C° 0 mm 3 m/S 773 mmHg 89%

    27 September, Mittwoch

    Zeit Temperatur Niederschläge Wind Luftdruck Luftfeuchtigkeit
    00:00 +10°C° 0 mm 3 m/S 773 mmHg 90%
    01:00 +9°C° 0 mm 2 m/S 773 mmHg 91%
    02:00 +9°C° 0 mm 2 m/S 773 mmHg 92%
    03:00 +9°C° 0 mm 2 m/S 773 mmHg 93%
    04:00 +9°C° 0 mm 2 m/S 773 mmHg 94%
    05:00 +9°C° 0 mm 2 m/S 773 mmHg 95%
    06:00 +9°C° 0 mm 3 m/S 774 mmHg 93%
    07:00 +10°C° 0 mm 3 m/S 774 mmHg 92%
    08:00 +10°C° 0 mm 3 m/S 774 mmHg 90%
    09:00 +12°C° 0 mm 3 m/S 774 mmHg 84%
    10:00 +13°C° 0 mm 3 m/S 774 mmHg 79%
    11:00 +16°C° 0 mm 3 m/S 774 mmHg 73%
    12:00 +16°C° 0 mm 3 m/S 774 mmHg 70%
    13:00 +17°C° 0 mm 3 m/S 774 mmHg 67%
    14:00 +18°C° 0 mm 3 m/S 774 mmHg 64%
    15:00 +17°C° 0 mm 3 m/S 774 mmHg 67%
    16:00 +17°C° 0 mm 3 m/S 774 mmHg 71%
    17:00 +16°C° 0 mm 2 m/S 773 mmHg 74%
    18:00 +14°C° 0 mm 2 m/S 774 mmHg 78%
    19:00 +13°C° 0 mm 2 m/S 774 mmHg 82%
    20:00 +10°C° 0 mm 2 m/S 774 mmHg 86%
    21:00 +10°C° 0 mm 2 m/S 774 mmHg 86%
    22:00 +9°C° 0 mm 2 m/S 774 mmHg 87%
    23:00 +9°C° 0 mm 2 m/S 774 mmHg 88%

    28 September, Donnerstag

    Zeit Temperatur Niederschläge Wind Luftdruck Luftfeuchtigkeit
    00:00 +9°C° 0 mm 2 m/S 774 mmHg 88%
    01:00 +8°C° 0 mm 2 m/S 774 mmHg 89%
    02:00 +9°C° 0 mm 1 m/S 774 mmHg 89%
    03:00 +9°C° 0 mm 1 m/S 774 mmHg 90%
    04:00 +9°C° 0 mm 1 m/S 774 mmHg 90%
    05:00 +8°C° 0 mm 1 m/S 774 mmHg 90%
    06:00 +9°C° 0 mm 1 m/S 774 mmHg 88%
    07:00 +9°C° 0 mm 1 m/S 774 mmHg 86%
    08:00 +10°C° 0 mm 1 m/S 774 mmHg 84%
    09:00 +12°C° 0 mm 1 m/S 774 mmHg 78%
    10:00 +13°C° 0 mm 1 m/S 774 mmHg 72%
    11:00 +15°C° 0 mm 2 m/S 774 mmHg 65%
    12:00 +16°C° 0 mm 2 m/S 773 mmHg 63%
    13:00 +18°C° 0 mm 1 m/S 773 mmHg 60%
    14:00 +18°C° 0 mm 1 m/S 773 mmHg 58%
    15:00 +18°C° 0 mm 1 m/S 773 mmHg 62%
    16:00 +16°C° 0 mm 1 m/S 772 mmHg 66%
    17:00 +16°C° 0 mm 1 m/S 772 mmHg 70%
    18:00 +14°C° 0 mm 1 m/S 772 mmHg 74%
    19:00 +13°C° 0 mm 1 m/S 772 mmHg 78%
    20:00 +12°C° 0 mm 1 m/S 773 mmHg 83%
    21:00 +11°C° 0 mm 1 m/S 773 mmHg 84%
    22:00 +11°C° 0 mm 1 m/S 773 mmHg 85%
    23:00 +11°C° 0 mm 1 m/S 773 mmHg 87%

    29 September, Freitag

    Zeit Temperatur Niederschläge Wind Luftdruck Luftfeuchtigkeit
    00:00 +11°C° 0 mm 1 m/S 773 mmHg 86%
    01:00 +11°C° 0 mm 1 m/S 773 mmHg 85%
    02:00 +11°C° 0 mm 1 m/S 773 mmHg 85%
    03:00 +11°C° 0 mm 1 m/S 773 mmHg 84%
    04:00 +11°C° 0 mm 1 m/S 773 mmHg 84%
    05:00 +10°C° 0 mm 0 m/S 773 mmHg 83%
    06:00 +10°C° 0 mm 0 m/S 773 mmHg 84%
    07:00 +10°C° 0 mm 0 m/S 773 mmHg 84%
    08:00 +11°C° 0 mm 0 m/S 773 mmHg 84%
    09:00 +11°C° 0 mm 0 m/S 773 mmHg 82%
    10:00 +12°C° 0 mm 0 m/S 772 mmHg 80%
    11:00 +12°C° 0 mm 0 m/S 772 mmHg 78%
    12:00 +13°C° 0,1 mm 1 m/S 772 mmHg 76%
    13:00 +14°C° 0,1 mm 1 m/S 772 mmHg 74%
    14:00 +14°C° 0,1 mm 1 m/S 772 mmHg 72%
    15:00 +14°C° 0 mm 1 m/S 771 mmHg 73%
    16:00 +14°C° 0 mm 1 m/S 771 mmHg 74%
    17:00 +14°C° 0 mm 1 m/S 771 mmHg 75%
    18:00 +12°C° 0 mm 1 m/S 771 mmHg 79%
    19:00 +11°C° 0 mm 1 m/S 771 mmHg 82%
    20:00 +10°C° 0 mm 1 m/S 771 mmHg 86%
    21:00 +10°C° 0 mm 1 m/S 771 mmHg 86%
    22:00 +9°C° 0 mm 1 m/S 771 mmHg 87%
    23:00 +9°C° 0 mm 1 m/S 771 mmHg 87%
    Mehr zeigen